This is the latest recevied weather packets stored in our database for station/object K7SKM. If no packets are shown the sender has not sent any weather packets the latest 10 day(s).
| Time | Temp. | Humidity | Pressure | Rain* | Wind** | Luminosity | Snow |
|---|---|---|---|---|---|---|---|
| 1787961146 | 22.78° C | 49% | 1020.4 hPa | 0 mm | - | 95 W/m² | - |
| 1787960845 | 22.78° C | 49% | 1020.5 hPa | 0 mm | - | 107 W/m² | - |
| 1787960540 | 22.22° C | 50% | 1020.5 hPa | 0 mm | - | 100 W/m² | - |
| 1787960239 | 22.22° C | 51% | 1020.6 hPa | 0 mm | - | 95 W/m² | - |
| 1787959940 | 22.78° C | 51% | 1020.6 hPa | 0 mm | - | 97 W/m² | - |
| 1787959633 | 22.78° C | 50% | 1020.6 hPa | 0 mm | - | 95 W/m² | - |
| 1787959328 | 22.22° C | 51% | 1020.7 hPa | 0 mm | - | 86 W/m² | - |
| 1787959028 | 22.22° C | 51% | 1020.7 hPa | 0 mm | - | 84 W/m² | - |
| 1787958723 | 22.22° C | 52% | 1020.9 hPa | 0 mm | - | 84 W/m² | - |
| 1787958418 | 22.22° C | 51% | 1021 hPa | 0 mm | - | 92 W/m² | - |
| 1787958114 | 22.22° C | 50% | 1020.8 hPa | 0 mm | - | 97 W/m² | - |
| 1787957813 | 22.22° C | 50% | 1021 hPa | 0 mm | - | 97 W/m² | - |
| 1787957508 | 22.22° C | 51% | 1020.9 hPa | 0 mm | - | 109 W/m² | - |
| 1787957203 | 21.67° C | 52% | 1020.9 hPa | 0 mm | - | 117 W/m² | - |
| 1787956898 | 22.22° C | 51% | 1020.9 hPa | 0 mm | - | 102 W/m² | - |
| 1787956597 | 22.22° C | 51% | 1021.2 hPa | 0 mm | - | 107 W/m² | - |
| 1787956292 | 22.78° C | 50% | 1021 hPa | 0 mm | - | 108 W/m² | - |
| 1787955987 | 22.78° C | 50% | 1021.2 hPa | 0 mm | - | 95 W/m² | - |
| 1787955683 | 22.22° C | 51% | 1021 hPa | 0 mm | - | 83 W/m² | - |
| 1787955379 | 22.22° C | 51% | 1021.2 hPa | 0 mm | - | 82 W/m² | - |
| 1787955077 | 23.33° C | 49% | 1021.2 hPa | 0 mm | - | 96 W/m² | - |
| 1787954773 | 23.33° C | 50% | 1021.4 hPa | 0 mm | - | 102 W/m² | - |
| 1787954469 | 22.78° C | 51% | 1021.4 hPa | 0 mm | - | 109 W/m² | - |
| 1787954168 | 22.78° C | 51% | 1021.1 hPa | 0 mm | - | 102 W/m² | - |
| 1787953862 | 22.78° C | 51% | 1021.4 hPa | 0 mm | - | 110 W/m² | - |
* Rain latest hour (hover to see other rain measurements)
** Current wind speed in m/s (hover to see current wind gust speed)